Location: Ostrava
(49.8330°N, 18.2830°E)
Time: 04:23:56
(UTC+02:00)

ISS - Pass Details

Date: 18 May 2021
Orbit: 417 x 422 km, 51.6° (Epoch: 13 June)

Event Time Altitude Azimuth Distance (km) Brightness Sun altitude
Rises 01:17:54 0° 287° (WNW) 2,371 0.2 -20.2°
Reaches altitude 10° 01:20:00 10° 286° (WNW) 1,506 -0.9 -20.1°
Enters shadow 01:22:37 51° 282° (WNW) 537 -3.3 -20.1°
